TimeCET,TemperatureF,Dew PointF,Humidity,Sea Level PressureIn,VisibilityMPH,Wind Direction,Wind SpeedMPH,Gust SpeedMPH,PrecipitationIn,Events,Conditions,WindDirDegrees,DateUTC
12:15 AM,30.2,28.4,93,29.68,1.6,West,8.9,-,N/A,Snow,Snow,260,2013-01-22 23:15:00
12:45 AM,30.2,28.4,93,29.68,1.6,West,11.2,-,N/A,Snow,Light Snow,260,2013-01-22 23:45:00
1:15 AM,30.2,28.4,93,29.68,1.6,West,11.2,-,N/A,Snow,Light Snow,260,2013-01-23 00:15:00
1:45 AM,30.2,28.4,93,29.68,1.6,West,11.2,-,N/A,Snow,Light Snow,260,2013-01-23 00:45:00
2:15 AM,30.2,30.2,100,29.68,1.6,West,13.4,-,N/A,Snow,Light Snow,270,2013-01-23 01:15:00
2:45 AM,30.2,30.2,100,29.68,1.6,West,13.4,-,N/A,Snow,Light Snow,270,2013-01-23 01:45:00
3:15 AM,32.0,30.2,93,29.68,1.6,West,11.2,-,N/A,Snow,Light Snow,270,2013-01-23 02:15:00
3:45 AM,32.0,30.2,93,29.68,1.2,West,11.2,-,N/A,Snow,Light Snow,270,2013-01-23 02:45:00
4:15 AM,32.0,30.2,93,29.68,1.2,West,13.4,-,N/A,Snow,Light Snow,280,2013-01-23 03:15:00
4:45 AM,30.2,30.2,100,29.71,1.2,West,13.4,24.6,N/A,Snow,Light Snow,280,2013-01-23 03:45:00
5:15 AM,30.2,30.2,100,29.71,1.2,West,15.7,-,N/A,Snow,Light Snow,280,2013-01-23 04:15:00
5:45 AM,-9999,-9999,N/A,-9999,3.1,West,13.4,-,N/A,,Mostly Cloudy,280,2013-01-23 04:45:00
6:15 AM,30.2,30.2,100,29.74,0.9,West,15.7,-,N/A,Snow,Light Snow,280,2013-01-23 05:15:00
6:20 AM,-9999,-9999,N/A,-9999,3.1,West,13.4,24.6,N/A,,Mostly Cloudy,280,2013-01-23 05:20:00
6:45 AM,30.2,30.2,100,29.74,0.9,West,15.7,-,N/A,Snow,Light Snow,280,2013-01-23 05:45:00
7:15 AM,30.2,28.4,93,29.74,1.1,West,13.4,-,N/A,Snow,Light Snow,280,2013-01-23 06:15:00
7:45 AM,30.2,28.4,93,29.77,1.2,West,13.4,-,N/A,Snow,Light Snow,280,2013-01-23 06:45:00
8:15 AM,30.2,28.4,93,29.77,1.9,West,13.4,-,N/A,Snow,Light Snow,270,2013-01-23 07:15:00
8:45 AM,-9999,-9999,N/A,-9999,3.7,West,13.4,24.6,N/A,,Unknown,270,2013-01-23 07:45:00
9:15 AM,30.2,28.4,93,29.80,1.9,West,11.2,-,N/A,Snow,Light Snow,270,2013-01-23 08:15:00
9:45 AM,30.2,30.2,100,29.80,1.2,West,11.2,-,N/A,Snow,Light Snow,270,2013-01-23 08:45:00
10:15 AM,32.0,30.2,93,29.80,1.2,West,11.2,-,N/A,Snow,Light Snow,260,2013-01-23 09:15:00
10:45 AM,32.0,30.2,93,29.80,1.9,West,11.2,-,N/A,Snow,Light Snow,260,2013-01-23 09:45:00
11:15 AM,32.0,30.2,93,29.80,2.5,West,11.2,-,N/A,Snow,Light Snow,260,2013-01-23 10:15:00
11:35 AM,32.0,30.2,93,29.80,3.1,West,8.9,-,N/A,Snow,Light Snow,260,2013-01-23 10:35:00
11:45 AM,-9999,-9999,N/A,-9999,5.0,West,8.9,-,N/A,,Mostly Cloudy,260,2013-01-23 10:45:00
12:15 PM,33.8,30.2,87,29.80,3.7,West,8.9,-,N/A,,Overcast,260,2013-01-23 11:15:00
1:15 PM,33.8,32.0,93,29.80,3.7,WSW,8.9,-,N/A,,Overcast,250,2013-01-23 12:15:00
1:45 PM,35.6,32.0,87,29.83,3.7,WSW,6.7,-,N/A,,Overcast,250,2013-01-23 12:45:00
2:15 PM,35.6,32.0,87,29.80,3.7,West,4.5,-,N/A,,Overcast,260,2013-01-23 13:15:00
2:31 PM,35.6,33.8,93,29.83,3.1,WSW,4.5,-,N/A,,Light Drizzle,250,2013-01-23 13:31:00
2:45 PM,-9999,-9999,N/A,-9999,3.1,Variable,4.5,-,N/A,,Overcast,0,2013-01-23 13:45:00
3:15 PM,35.6,32.0,87,29.83,3.1,WSW,4.5,-,N/A,,Overcast,250,2013-01-23 14:15:00
3:45 PM,35.6,33.8,93,29.83,3.1,WSW,4.5,-,N/A,,Overcast,250,2013-01-23 14:45:00
4:15 PM,35.6,33.8,93,29.83,3.1,SW,2.2,-,N/A,,Overcast,220,2013-01-23 15:15:00
4:45 PM,35.6,33.8,93,29.83,3.1,WSW,2.2,-,N/A,,Overcast,240,2013-01-23 15:45:00
5:15 PM,35.6,33.8,93,29.83,2.5,SSE,4.5,-,N/A,,Overcast,160,2013-01-23 16:15:00
5:45 PM,-9999,-9999,N/A,-9999,1.9,Variable,4.5,-,N/A,,Overcast,0,2013-01-23 16:45:00
6:15 PM,33.8,33.8,100,29.83,2.5,Calm,Calm,-,N/A,,Overcast,0,2013-01-23 17:15:00
6:45 PM,33.8,33.8,100,29.83,2.5,Calm,Calm,-,N/A,,Overcast,0,2013-01-23 17:45:00
7:15 PM,33.8,33.8,100,29.83,2.2,Calm,Calm,-,N/A,,Overcast,0,2013-01-23 18:15:00
7:28 PM,33.8,33.8,100,29.83,1.9,ESE,4.5,-,N/A,,Overcast,110,2013-01-23 18:28:00
7:45 PM,33.8,33.8,100,29.83,1.6,ESE,2.2,-,N/A,,Overcast,110,2013-01-23 18:45:00
8:15 PM,35.6,33.8,93,29.83,1.2,East,2.2,-,N/A,,Light Drizzle,90,2013-01-23 19:15:00
8:45 PM,-9999,-9999,N/A,-9999,0.9,Variable,4.5,-,N/A,,Overcast,0,2013-01-23 19:45:00
9:03 PM,33.8,33.8,100,29.83,0.9,ENE,2.2,-,N/A,,Light Drizzle,70,2013-01-23 20:03:00
9:15 PM,33.8,33.8,100,29.83,0.9,ENE,2.2,-,N/A,,Light Drizzle,60,2013-01-23 20:15:00
9:45 PM,33.8,33.8,100,29.83,0.9,ENE,2.2,-,N/A,,Light Drizzle,60,2013-01-23 20:45:00
10:15 PM,33.8,33.8,100,29.83,0.9,ENE,4.5,-,N/A,,Overcast,70,2013-01-23 21:15:00
10:45 PM,33.8,33.8,100,29.83,0.9,ENE,2.2,-,N/A,,Overcast,70,2013-01-23 21:45:00
11:15 PM,35.6,33.8,93,29.83,0.9,East,2.2,-,N/A,,Overcast,90,2013-01-23 22:15:00
11:45 PM,-9999,-9999,N/A,-9999,0.9,North,-9999.0,-,N/A,,Overcast,0,2013-01-23 22:45:00